Temp
18 20 20 20 21 20 19 20 20 19 19 18 18 19 19 20 20 20 20 20 20 20 19 19 19 18 18 19 18 18 17 17 16 16 16 16 17 17 17 17 17 16 16
17 19 20 21 19 20 20 20 20 19 19 19 19 19 19 20 21 21 21 20 20 20 20 19 19 19 19 18 18 18 17 16 16 16 14 12 15 17 17 17 16 16 16
16 16 18 20 21 19 20 20 20 20 20 19 19 19 19 20 20 20 20 20 20 20 19 19 19 19 19 19 19 18 17 17 17 16 16 11 11 12 16 16 16 15 15
16 16 16 18 19 20 19 20 20 19 19 19 19 19 19 19 19 20 20 20 19 19 19 19 19 19 19 19 18 18 18 17 16 15 16 16 15 13 13 15 15 16 16
15 15 14 15 16 18 18 18 19 19 19 18 18 19 18 18 18 18 19 19 19 19 18 18 18 18 18 18 18 18 17 17 16 16 16 15 14 13 13 15 14 13 13
14 13 13 13 14 15 16 17 17 17 18 18 17 17 17 17 17 17 17 17 17 17 17 17 17 17 17 17 17 17 17 16 16 15 15 15 14 12 12 10 13 11 12
12 11 10 11 13 14 15 16 16 16 16 17 16 16 16 16 16 16 16 17 17 18 18 18 18 18 18 17 17 17 16 16 15 15 15 15 14 14 14 12 11 9 9
10 10 10 11 12 13 14 15 15 15 15 16 16 16 16 16 16 16 16 17 17 17 18 17 17 17 17 17 17 17 16 15 14 14 14 14 13 13 13 12 11 7 6
9 9 9 10 11 11 12 13 13 13 13 13 13 14 14 14 14 15 15 15 16 16 16 17 16 16 16 16 16 15 15 14 14 13 13 12 12 12 11 10 10 10 8
9 8 8 9 10 11 11 11 11 11 11 11 11 11 12 12 12 13 13 13 13 14 14 15 15 15 15 15 14 14 15 14 13 12 11 11 10 10 9 8 8 8 8
8 8 8 9 10 10 10 10 10 10 10 10 10 10 10 10 10 11 11 11 12 12 12 13 13 13 13 13 12 12 12 12 10 10 9 9 8 8 7 7 7 7 6
8 7 7 8 9 9 9 9 9 9 9 8 9 8 8 8 9 9 9 9 10 10 10 11 11 11 10 10 10 10 10 9 9 8 8 7 6 6 6 6 6 5 5
7 7 6 6 7 8 8 8 8 8 8 7 7 7 7 7 7 8 8 8 8 8 9 9 9 9 9 9 8 8 8 9 7 7 6 6 5 5 4 4 4 3 4
8 6 6 6 7 8 8 7 7 7 7 7 7 6 6 6 6 7 7 7 7 8 8 8 7 7 7 7 7 7 7 6 5 4 4 4 4 4 3 3 2 2 2
8 8 6 5 6 7 7 7 7 7 6 6 6 5 5 5 5 5 6 6 6 6 6 6 5 5 5 5 6 5 5 4 3 3 2 2 2 2 1 2 1 1 1
10 8 7 6 5 6 6 6 6 6 5 5 5 4 4 4 4 4 4 4 4 4 4 4 4 4 3 3 4 4 3 2 2 0 0 0 0 0 -0 0 0 0 0
10 9 8 6 6 7 7 6 6 5 4 4 3 3 3 3 3 3 3 3 3 3 3 2 3 2 1 2 3 3 3 1 0 0 -0 0 -0 0 0 -1 -1 -1 -1
11 9 7 7 7 7 6 6 5 4 4 3 3 3 2 2 2 2 2 2 2 2 1 1 1 1 1 0 2 2 1 1 0 0 0 0 -0 -1 -1 -1 -1 -1 -1
10 9 8 8 7 7 6 5 4 4 3 2 2 2 2 2 2 1 1 1 1 1 1 1 1 1 0 1 1 1 1 1 -0 -0 -1 -1 -1 -2 -2 -1 -2 -2 -2
7 7 7 7 7 6 6 5 3 3 3 3 2 2 2 2 2 1 1 1 1 1 0 0 0 0 -0 0 1 1 1 0 -1 -1 -2 -2 -2 -2 -3 -2 -2 -2 -3
6 6 7 6 6 6 5 4 3 3 3 3 2 2 2 2 1 1 1 0 0 -0 -0 -0 -0 -0 -0 -0 0 0 0 0 -1 -1 -2 -2 -3 -3 -3 -3 -3 -3 -4
6 6 6 6 6 5 5 4 3 4 3 2 1 1 1 1 0 0 -0 -0 -0 -0 -1 -0 -1 -1 -1 -1 -1 -0 -0 -1 -1 -1 -2 -2 -3 -3 -4 -4 -4 -4 -4
5 5 6 5 5 5 5 4 4 3 2 2 1 0 0 0 0 0 -0 -1 -1 -0 -1 -1 -1 -1 -1 -1 -1 -1 -2 -1 -2 -2 -2 -3 -3 -4 -4 -4 -4 -4 -5
5 4 4 4 3 4 4 4 4 3 2 1 0 -0 -0 -0 -0 -0 0 -0 -1 -1 -1 -1 -1 -1 -1 -1 -1 -1 -2 -2 -2 -2 -3 -3 -4 -4 -4 -4 -5 -5 -5
5 5 4 4 3 3 3 3 3 2 1 0 0 -0 -0 -0 -0 0 0 0 1 1 1 1 0 -0 -1 0 -0 -1 -1 -1 -2 -3 -3 -3 -4 -4 -5 -5 -5 -5 -5
5 4 4 4 3 3 2 2 2 2 1 0 -0 -0 -0 -0 -0 -0 -1 -0 0 1 1 1 1 1 1 0 -0 -1 -2 -3 -4 -4 -4 -4 -4 -5 -5 -5 -6 -6 -6
Height
771 771 771 772 774 778 782 786 787 791 793 798 802 806 808 810 813 816 819 821 823 825 828 830 833 834 835 837 838 841 843 844 847 848 847 847 847 848 848 849 849 849 850
771 768 770 770 772 774 777 781 784 788 791 794 797 802 805 807 809 812 814 817 819 822 824 826 828 830 832 833 835 837 839 841 843 844 846 847 844 841 842 843 843 845 847
769 766 767 767 768 771 774 777 780 783 788 791 795 799 802 804 805 807 809 813 816 817 819 822 824 826 828 828 830 833 835 836 839 839 842 847 846 841 838 838 839 841 843
763 764 763 765 766 767 772 775 778 781 784 789 792 795 797 799 801 803 806 809 812 814 816 818 820 821 823 825 826 828 830 832 833 835 836 836 837 839 840 836 836 836 837
759 763 762 762 764 766 768 771 775 779 783 786 789 791 794 797 799 801 804 805 808 810 811 813 814 816 818 820 822 823 825 826 827 828 830 831 833 834 836 832 831 830 831
756 760 763 763 763 766 767 770 773 777 780 783 787 789 791 793 795 797 799 802 804 805 806 808 809 811 812 814 816 818 820 820 822 823 824 825 826 826 829 831 829 829 830
755 758 762 763 764 765 767 769 772 776 779 783 785 787 789 790 792 794 796 798 799 800 802 803 804 805 807 809 811 813 814 816 817 818 818 820 820 821 822 823 824 825 826
752 755 759 760 763 765 767 769 772 775 779 782 784 786 788 789 790 792 793 794 795 797 798 798 800 801 803 805 806 808 809 812 813 815 816 816 816 816 817 819 820 823 824
749 752 756 760 763 766 769 771 773 776 779 782 783 785 787 788 789 790 791 792 793 794 794 794 795 796 799 801 803 805 804 808 809 811 812 813 812 812 813 815 816 818 821
753 755 758 761 764 766 769 772 775 777 780 781 783 784 785 786 787 788 789 790 791 791 791 791 791 793 794 796 799 801 801 803 805 807 808 809 809 810 811 813 813 816 817
755 758 761 764 767 770 772 774 776 778 780 782 783 785 786 786 787 788 787 788 788 789 789 790 790 791 792 794 796 799 798 800 803 804 806 807 808 809 810 811 813 814 816
756 759 763 767 770 772 774 776 778 779 780 782 783 784 785 786 786 787 787 788 789 789 789 789 790 791 793 794 796 796 797 799 800 803 805 806 807 809 810 811 812 813 814
761 764 766 768 770 773 775 776 778 778 780 782 783 784 785 786 786 787 788 789 789 789 789 790 791 792 793 794 794 796 798 796 800 803 805 805 807 808 809 810 812 813 814
761 765 768 769 770 771 774 776 777 778 780 781 782 784 785 786 787 788 789 789 789 790 790 791 792 793 794 795 794 795 795 798 800 803 805 806 808 808 810 812 814 814 814
762 764 765 767 770 771 773 776 777 779 780 781 784 785 786 787 788 788 788 788 789 789 789 791 792 793 794 793 794 795 797 799 801 804 807 808 809 811 813 814 815 817 817
756 761 763 765 767 770 771 775 777 779 781 782 784 785 785 787 788 788 788 788 788 789 790 793 793 794 794 795 796 796 798 800 802 806 809 811 812 814 815 816 818 818 818
753 756 758 760 763 767 769 773 776 778 781 782 784 785 786 787 787 788 788 789 790 791 792 795 796 796 798 798 800 800 801 803 806 809 811 812 814 815 817 817 818 818 818
749 751 754 757 761 765 769 772 775 778 780 782 783 785 785 786 787 789 790 790 792 793 795 797 798 799 802 803 802 804 804 806 808 811 814 815 816 817 817 818 818 817 817
745 745 748 752 757 762 766 771 774 777 779 781 782 784 785 786 788 790 791 792 795 795 797 800 801 801 803 805 806 806 806 809 811 814 816 817 816 818 818 817 818 817 817
746 746 747 751 756 761 765 769 773 775 777 779 781 783 785 786 788 790 791 794 796 797 799 801 803 804 805 808 808 808 809 810 813 816 818 817 817 818 818 817 817 816 816
748 749 750 752 756 760 764 768 771 773 775 778 781 783 784 786 789 790 793 794 796 799 801 801 805 807 808 809 809 810 811 812 814 817 817 817 818 818 818 817 816 816 815
750 751 752 755 757 760 763 767 769 772 774 777 780 782 783 785 787 790 793 796 797 799 802 804 806 808 810 809 810 811 812 813 814 816 817 817 817 817 817 816 815 815 815
752 752 754 755 758 760 762 765 768 770 773 776 779 781 782 784 787 789 792 795 798 800 802 804 807 808 808 809 812 813 812 813 815 815 815 815 816 816 815 814 814 814 814
751 752 754 756 757 760 762 764 766 769 772 774 777 780 782 784 786 789 792 794 797 799 802 804 805 807 808 810 811 811 812 813 813 814 814 813 814 813 813 812 812 812 812
748 750 752 754 756 759 761 763 765 768 770 773 776 779 781 783 785 788 790 793 796 798 800 802 804 805 807 807 808 809 810 811 811 811 811 811 811 811 811 810 810 810 811
747 749 750 752 754 756 759 761 763 766 768 771 773 776 779 781 783 786 790 793 796 797 799 801 803 804 805 805 806 808 808 809 810 810 810 809 809 809 808 808 808 808 808
Wind_Speed
9 8 15 21 24 23 28 32 29 26 25 27 29 28 31 27 27 27 27 26 25 27 28 26 26 24 24 24 24 24 24 24 20 16 19 21 22 23 26 26 26 26 25
7 9 12 17 24 27 28 29 33 31 29 31 32 28 28 26 25 25 26 25 24 25 27 27 29 28 27 26 26 26 26 24 21 10 3 3 8 20 27 28 28 28 26
9 8 12 14 23 25 28 29 30 32 33 33 30 24 23 25 25 27 28 27 26 28 30 29 29 29 29 29 28 27 28 26 21 23 10 1 4 3 5 11 23 29 26
5 6 8 11 16 26 24 28 28 27 30 29 33 31 24 23 29 30 29 30 28 28 29 29 31 31 30 31 31 29 30 28 27 21 27 24 9 3 3 3 6 10 18
8 7 6 9 11 16 21 24 24 25 25 26 27 27 26 29 25 22 23 24 25 26 26 29 30 31 30 31 31 31 29 28 28 26 18 24 28 15 9 9 12 12 13
8 6 6 10 12 12 13 13 16 17 19 22 22 23 23 22 21 23 21 20 21 23 23 25 26 25 24 24 27 28 28 29 29 26 26 24 12 12 13 7 13 6 11
8 9 9 11 14 13 13 14 13 13 11 11 15 18 16 17 19 20 18 17 17 20 23 21 21 22 22 22 19 18 19 23 25 27 28 30 31 30 23 16 5 6 10
8 10 9 15 16 16 15 14 12 11 9 9 8 8 9 10 12 13 15 15 14 14 15 21 23 21 20 18 17 15 12 12 13 15 17 20 24 25 26 21 11 1 6
8 11 10 15 16 16 15 15 14 11 8 7 6 7 8 8 9 10 13 14 15 15 15 15 19 19 20 19 17 14 11 10 11 12 13 14 14 13 14 15 14 9 2
8 7 7 14 14 14 14 13 12 11 8 6 5 4 4 6 7 9 9 10 10 10 11 10 12 15 18 16 16 15 11 11 12 11 8 6 6 6 5 6 7 7 6
7 7 7 13 14 14 13 13 11 10 7 5 4 3 2 3 4 5 6 6 6 6 7 7 8 9 11 12 12 11 9 11 8 4 5 4 3 3 3 3 3 4 6
8 8 10 16 15 13 12 11 10 9 7 5 4 3 2 2 2 3 4 5 6 6 6 6 6 6 7 8 7 7 7 7 5 4 6 6 6 6 5 5 4 4 4
7 6 7 10 15 13 11 11 8 8 7 5 5 5 4 3 3 3 5 5 5 5 5 5 5 6 6 7 8 9 9 7 7 6 7 7 6 7 6 6 6 5 4
9 7 6 7 12 12 11 10 8 6 5 5 5 4 4 3 4 5 5 5 5 5 5 5 7 7 8 9 10 9 10 10 9 9 9 8 8 8 8 8 8 8 8
7 8 7 6 13 13 12 10 8 6 5 6 6 5 5 5 5 6 7 7 7 7 8 8 9 9 8 9 11 12 14 14 15 13 13 12 11 11 8 8 8 6 7
9 7 7 9 13 17 16 13 10 8 8 8 7 6 5 6 6 7 7 8 9 10 10 10 11 11 12 10 11 14 16 17 17 18 17 15 14 12 10 8 7 5 5
9 10 11 13 18 20 18 16 13 11 10 10 9 8 8 8 8 9 10 11 12 13 14 14 15 16 15 13 14 14 17 18 17 15 13 11 9 7 7 6 5 6 4
7 8 11 16 21 19 17 14 13 12 11 11 11 10 10 10 10 11 12 14 15 16 16 17 17 18 15 14 15 15 17 17 14 12 10 9 8 5 4 3 2 2 1
4 11 18 22 23 22 19 17 15 14 13 13 12 12 12 13 13 13 14 15 15 17 18 17 17 18 15 12 13 14 15 15 13 10 8 7 9 5 2 2 1 1 2
1 9 16 21 23 21 21 19 18 17 16 15 14 13 13 13 14 14 15 16 17 18 17 17 16 14 14 12 12 11 12 12 10 8 7 4 3 2 3 4 3 4 4
5 10 16 18 19 20 20 18 17 17 15 15 14 14 14 14 14 15 15 18 19 19 18 17 14 13 11 11 9 8 7 6 7 5 4 3 0 2 2 4 5 4 3
6 8 12 13 15 18 19 18 18 15 15 14 14 15 16 16 16 18 18 19 20 19 16 16 14 12 11 8 7 5 4 5 4 3 2 1 2 3 3 4 4 3 5
6 6 9 11 12 15 17 17 15 16 16 15 15 15 16 17 18 20 20 20 19 18 16 15 14 12 10 9 6 6 5 3 2 2 1 2 4 4 6 5 3 6 6
7 8 10 12 12 12 14 16 16 17 17 17 17 17 19 19 19 19 21 21 19 18 17 15 13 11 11 11 9 7 5 4 3 3 5 5 4 5 6 5 6 6 5
10 12 13 13 14 12 13 14 17 18 18 17 18 19 19 19 20 19 20 20 18 17 17 15 14 14 14 12 8 7 6 6 5 5 6 6 6 6 7 6 6 6 6
10 12 13 13 13 14 14 15 16 18 19 17 18 19 19 20 21 21 19 16 13 13 13 11 13 12 9 8 9 8 7 5 4 6 7 7 7 8 8 8 8 8 7
Wind_Direction
261 266 230 213 209 212 211 209 202 197 198 203 204 211 216 218 223 226 225 227 228 228 231 234 233 235 236 238 238 240 242 242 245 247 249 253 254 253 252 253 255 254 252
245 247 234 224 218 212 213 210 212 206 198 201 202 206 211 214 220 224 224 228 230 232 231 234 235 236 239 240 238 237 238 241 238 225 207 310 276 256 256 253 253 255 255
222 240 240 230 225 217 215 220 215 211 210 210 208 211 219 223 221 222 226 228 230 232 232 237 239 240 241 244 244 240 237 241 241 236 213 111 233 327 267 263 254 252 256
234 234 237 231 220 222 218 216 218 213 211 214 214 215 213 215 226 230 230 232 233 235 238 241 243 245 245 246 248 248 245 243 247 239 234 237 248 203 308 277 261 257 260
206 200 212 188 204 214 217 212 215 223 218 215 216 217 223 230 232 236 237 235 236 240 242 243 247 248 249 250 251 252 252 250 246 241 240 240 242 243 228 266 247 253 247
208 156 159 149 136 149 158 167 183 195 215 223 226 229 231 232 234 237 239 240 243 246 248 250 249 253 252 255 255 255 258 261 257 247 244 234 230 220 222 248 255 259 270
179 164 164 155 143 138 140 147 149 141 156 177 207 223 230 233 241 249 251 252 255 255 253 250 248 248 250 253 254 254 261 260 258 257 252 254 249 248 251 235 233 227 246
173 171 168 159 152 146 147 150 151 152 163 172 183 194 208 224 236 240 243 246 251 259 259 252 249 247 246 247 240 238 251 258 267 270 272 271 262 260 256 248 214 211 239
166 156 148 156 151 148 148 152 152 152 163 174 189 208 225 229 232 237 243 247 250 254 257 256 247 246 239 240 234 224 221 243 262 275 272 266 256 258 256 255 247 227 225
129 130 134 143 143 141 141 143 144 144 146 153 165 185 212 232 244 246 242 241 240 242 244 242 239 235 225 212 210 216 224 249 256 260 260 250 242 247 255 256 251 238 224
130 127 124 138 139 136 138 137 137 136 135 141 148 165 185 218 228 229 229 232 231 230 231 229 222 213 212 214 223 234 226 234 225 226 230 206 203 186 180 180 199 200 206
151 143 139 143 143 143 143 141 140 134 126 126 123 120 115 131 148 173 192 204 210 210 216 216 214 208 208 194 206 203 181 172 158 172 166 148 144 142 143 154 161 176 184
130 134 140 153 155 153 147 143 140 128 131 138 133 133 134 137 124 135 147 157 161 164 169 178 174 167 165 166 162 158 156 148 155 157 157 151 158 149 144 139 132 126 116
165 162 157 163 163 157 155 153 147 141 144 150 140 145 140 156 169 179 187 189 185 182 183 169 157 150 155 154 149 151 144 141 138 140 135 137 137 128 128 126 122 120 116
175 187 174 168 173 167 164 166 163 160 164 157 163 156 158 166 172 171 173 172 169 160 152 154 148 143 145 143 147 143 134 130 124 119 115 112 113 113 118 126 123 122 118
196 190 175 173 179 181 176 176 176 174 176 173 170 169 166 166 163 156 150 149 140 136 138 135 132 127 117 128 136 139 134 132 129 122 116 116 108 100 96 102 101 95 108
191 193 192 186 183 189 186 183 179 178 178 174 168 164 163 155 150 149 146 139 138 138 131 127 124 113 109 116 125 129 127 126 124 123 122 116 114 115 117 107 120 106 90
207 198 182 181 192 190 186 180 179 179 177 173 168 169 167 159 154 154 149 144 142 137 134 129 121 114 111 118 117 125 122 117 115 117 119 120 114 100 117 123 149 149 156
240 209 192 180 183 182 182 180 177 180 180 182 175 176 173 163 160 157 152 148 148 140 137 135 131 127 122 123 128 129 121 119 115 116 125 123 110 102 70 34 313 266 229
175 158 164 168 168 176 182 180 183 187 188 188 186 184 180 176 169 166 159 158 153 141 140 134 130 125 124 129 128 127 127 123 124 128 129 106 107 77 8 335 317 301 281
137 153 159 157 172 178 182 178 187 194 191 187 190 184 182 180 177 167 165 159 153 145 142 133 133 134 134 130 128 128 135 144 153 158 159 167 157 342 322 303 312 307 285
131 153 155 163 176 184 186 189 196 195 189 187 194 187 181 177 174 171 168 164 156 151 147 144 140 140 139 131 133 147 158 158 167 182 202 236 281 301 294 286 298 264 261
169 174 174 171 175 190 198 195 198 190 189 190 192 191 182 180 180 175 173 168 167 163 161 162 162 157 152 143 151 153 142 144 188 198 267 309 285 279 290 300 282 254 266
205 203 193 184 189 195 206 217 203 195 194 193 191 188 184 180 179 184 181 177 176 177 178 181 180 179 184 189 188 182 189 193 242 254 280 292 271 277 287 282 258 267 262
198 203 198 200 209 205 207 209 204 199 196 194 186 183 184 180 184 190 188 187 191 195 192 198 201 199 208 214 214 223 227 239 257 271 291 294 279 269 271 268 261 257 249
209 204 212 216 218 211 210 206 207 205 199 184 184 184 185 189 191 186 186 200 208 209 213 223 227 223 229 222 223 227 231 234 234 266 283 285 278 270 274 273 267 260 255